Weather in Stolovoye

Russia / Tambov Oblast     52°47′20″N   41°45′55″E
temp.,
°C
wind,
m/s
gust,
m/s
humid.,
%
clouds,
%
prec.,
mm/h
press.,
hPa
HPBL,
m
1 march, mon
mon100:00−9ne129686 0.1 102021
03:00−11nne119652 0.1 102221
06:00−11n129640 0.0 102321
09:00−9n128951 0.0 1025184
12:00−4nw237883 0.0 1026494
15:00−4wnw348390 0.0 1025401
18:00−7wsw259661 0.0 1024118
21:00−6wsw4119358 0.0 1024312
2 march, tue
tue200:00−5wsw5129596 0.1 1021471
03:00−3wsw6139398 0.2 1018589
06:00−1wsw61394100 0.1 1015572
09:00+1wsw61392100 0.2 1013726
12:00+1w61297100 0.1 1010704
15:00+1wnw61197100 0.3 1008755
18:000nw41097100 0.6 1008531
21:00−2nw31094100 0.7 1008364
3 march, wed
wed300:00−3nw399294 0.0 1008319
03:00−5nw389392 0.0 1010218
06:00−4nw5119592 0.2 1010562
09:00−3nnw6108695 0.6 1012934
12:00−4nw61080100 0.2 1013919
15:00−4nw6983100 0.3 1015889
18:00−5wnw4118690 0.1 1015433
21:00−4w4119578 0.1 1016429
4 march, thu
thu400:00−3w4119294 0.1 1015546
03:00−3w5119596 0.3 1014567
06:00−4wsw4129399 0.1 1013463
09:00−2wsw6118598 0.1 1011925
12:00+1wsw7148697 0.0 1008739
15:00+2wsw8168185 0.0 1006872
18:00+1wsw7167499 0.0 1004920
21:00+1wsw7167296 0.0 10031014
5 march, fri
fri500:00+1wsw61485100 0.0 1002795
03:000w51194100 1.1 1004631
06:00−2wnw269499 0.0 1006229
09:00−3nnw2388100 0.0 1009267
12:00−1nne227795 0.0 1010567
15:00−1nne127497 0.0 1012606
18:00−3e1190100 0.0 101323
21:00−5ese2287100 0.0 101441